Alliance, NE

3:20 AM MDT on April 25, 2018 (GMT -0600)
Alliance Municipal

Weather History for KAIA - December, 2013

Change the Weather History Date:

Thursday, December 19, 2013

  Actual Average Record
Temperature  
Mean Temperature - 23 °F  
Max Temperature - 38 °F 63 °F (1917)
Min Temperature - 8 °F -17 °F (1989)
Degree Days  
Heating Degree Days 42  
Month to date heating degree days 785 778  
Since 1 July heating degree days 2515 2577  
Cooling Degree Days 0  
Month to date cooling degree days 0 0  
Year to date cooling degree days 795 564  
Moisture  
Dew Point -    
Average Humidity    
Maximum Humidity    
Minimum Humidity    
Precipitation  
Precipitation T in 0.00 in 0.20 in (1902)
Month to date precipitation 0.14 0.24  
Year to date precipitation 14.07 15.58  
Sea Level Pressure  
Sea Level Pressure 29.79 in    
Wind  
Wind Speed 11 mph (NE)    
Max Wind Speed 22 mph    
Max Gust Speed 31 mph    
Visibility 5 miles    
Events Fog    
T = Trace of Precipitation, MM = Missing Value Source: NWS Daily Summary

Daily Weather History Graph

Daily Weather History Graph

Search for Another Location

Airport or City:

Astronomy

Dec. 19, 2013 Rise Set
Actual Time 7:15 AM MST 4:21 PM MST
Civil Twilight 6:43 AM MST 4:53 PM MST
Nautical Twilight 6:08 AM MST 5:28 PM MST
Astronomical Twilight 5:33 AM MST 6:03 PM MST
Moon 6:51 PM MST (12/19) 8:33 AM MST (12/19)
Length of Visible Light 10h 10m
Length of Day
9h 06m
Waning Gibbous, 95% of the Moon is Illuminated
Dec 19
Waning Gibbous
Dec 25
Last Quarter
Jan 1
New
Jan 7
First Quarter
Jan 15
Full

Hourly Weather History & Observations

Time (MST) Temp. Dew Point Humidity Pressure Visibility Wind Dir Wind Speed Gust Speed Precip Events Conditions
12:53 AM - - N/A% 29.75 in 10.0 mi Calm Calm - N/A   Clear
1:53 AM - - N/A% 29.74 in 10.0 mi NNE 6.9 mph - N/A   Clear
2:53 AM - - N/A% 29.73 in 10.0 mi NE 8.1 mph - N/A   Clear
3:53 AM - - N/A% 29.72 in 10.0 mi ENE 8.1 mph - N/A   Clear
4:53 AM - - N/A% 29.73 in 10.0 mi ENE 6.9 mph - N/A   Clear
5:20 AM - - N/A% 29.72 in 10.0 mi ENE 9.2 mph - N/A   Scattered Clouds
5:31 AM - - N/A% 29.72 in 10.0 mi East 11.5 mph - N/A   Mostly Cloudy
5:53 AM - - N/A% 29.71 in 10.0 mi ENE 10.4 mph - N/A   Overcast
6:13 AM - - N/A% 29.72 in 9.0 mi ENE 9.2 mph - N/A   Overcast
6:53 AM - - N/A% 29.73 in 7.0 mi ENE 9.2 mph - N/A   Overcast
7:25 AM - - N/A% 29.72 in 2.5 mi ENE 6.9 mph - N/A   Overcast
7:35 AM - - N/A% 29.73 in 5.0 mi ENE 8.1 mph - N/A   Haze
7:53 AM - - N/A% 29.73 in 6.0 mi East 8.1 mph - N/A   Haze
8:02 AM - - N/A% 29.73 in 1.8 mi ENE 8.1 mph - N/A   Overcast
8:11 AM - - N/A% 29.72 in 1.2 mi ENE 9.2 mph - N/A   Overcast
8:19 AM - - N/A% 29.74 in 1.0 mi ENE 9.2 mph - N/A   Overcast
8:27 AM - - N/A% 29.72 in 1.5 mi ENE 15.0 mph - N/A   Overcast
8:31 AM - - N/A% 29.75 in 3.0 mi ENE 8.1 mph - N/A   Overcast
8:37 AM - - N/A% 29.76 in 1.8 mi NE 5.8 mph - N/A   Overcast
8:39 AM - - N/A% 29.76 in 1.0 mi NNE 8.1 mph - N/A   Overcast
8:53 AM - - N/A% 29.75 in 0.5 mi ENE 12.7 mph - N/A Fog Fog
9:37 AM - - N/A% 29.75 in 1.2 mi East 13.8 mph - N/A   Overcast
9:53 AM - - N/A% 29.74 in 1.8 mi East 11.5 mph - N/A   Overcast
10:01 AM - - N/A% 29.74 in 1.0 mi East 13.8 mph - N/A   Overcast
10:10 AM - - N/A% 29.74 in 0.5 mi East 12.7 mph - N/A Fog Fog
10:39 AM - - N/A% 29.74 in 1.2 mi ENE 10.4 mph - N/A   Overcast
10:49 AM - - N/A% 29.73 in 1.0 mi ENE 9.2 mph - N/A   Overcast
10:53 AM - - N/A% 29.73 in 1.0 mi ENE 10.4 mph - N/A   Overcast
11:13 AM - - N/A% 29.72 in 0.8 mi ENE 9.2 mph - N/A   Overcast
11:26 AM - - N/A% 29.71 in 1.0 mi ENE 11.5 mph - N/A   Overcast
11:35 AM - - N/A% 29.71 in 0.8 mi ENE 10.4 mph - N/A   Overcast
11:53 AM - - N/A% 29.71 in 0.5 mi NE 10.4 mph - N/A Fog Fog
12:25 PM - - N/A% 29.72 in 1.0 mi NNE 12.7 mph - N/A   Overcast
12:33 PM - - N/A% 29.72 in 0.8 mi NNE 12.7 mph - N/A   Overcast
12:53 PM - - N/A% 29.71 in 0.5 mi NNE 15.0 mph - N/A Fog Fog
1:53 PM - - N/A% 29.72 in 0.5 mi NNE 21.9 mph 26.5 mph N/A Fog Fog
2:50 PM - - N/A% 29.78 in 1.0 mi NNE 21.9 mph 31.1 mph N/A   Overcast
2:53 PM - - N/A% 29.79 in 0.8 mi NNE 18.4 mph 31.1 mph N/A   Overcast
3:02 PM - - N/A% 29.78 in 1.2 mi NNE 19.6 mph 26.5 mph N/A   Overcast
3:06 PM - - N/A% 29.79 in 2.0 mi NNE 21.9 mph 28.8 mph N/A   Overcast
3:14 PM - - N/A% 29.79 in 4.0 mi NNE 24.2 mph 28.8 mph N/A   Haze
3:37 PM - - N/A% 29.80 in 8.0 mi NNE 21.9 mph 28.8 mph N/A   Overcast
3:53 PM - - N/A% 29.82 in 10.0 mi North 21.9 mph 29.9 mph N/A   Overcast
4:34 PM - - N/A% 29.84 in 4.0 mi North 24.2 mph 32.2 mph 0.00 in   Unknown
4:51 PM - - N/A% 29.86 in 9.0 mi North 26.5 mph 33.4 mph 0.00 in   Unknown
4:53 PM - - N/A% 29.86 in 9.0 mi North 26.5 mph 33.4 mph 0.00 in   Unknown
5:53 PM - - N/A% 29.89 in 10.0 mi North 24.2 mph 32.2 mph 0.00 in   Overcast
6:09 PM - - N/A% 29.90 in 10.0 mi North 21.9 mph 31.1 mph N/A   Overcast
6:53 PM - - N/A% 29.92 in 10.0 mi North 19.6 mph 27.6 mph N/A   Overcast
7:53 PM - - N/A% 29.92 in 10.0 mi North 16.1 mph - N/A   Clear
8:53 PM - - N/A% 29.94 in 10.0 mi North 12.7 mph - N/A   Scattered Clouds
9:13 PM - - N/A% 29.95 in 10.0 mi North 13.8 mph - N/A   Mostly Cloudy
9:23 PM - - N/A% 29.95 in 10.0 mi North 12.7 mph - N/A   Scattered Clouds
9:44 PM - - N/A% 29.95 in 10.0 mi North 12.7 mph - N/A   Mostly Cloudy
9:53 PM - - N/A% 29.95 in 10.0 mi North 11.5 mph - N/A   Mostly Cloudy
10:31 PM - - N/A% 29.96 in 10.0 mi North 9.2 mph - N/A   Overcast
10:53 PM - - N/A% 29.96 in 10.0 mi North 8.1 mph - N/A   Overcast
11:06 PM - - N/A% 29.96 in 10.0 mi NNW 12.7 mph - N/A   Overcast
11:53 PM - - N/A% 29.95 in 9.0 mi North 11.5 mph - N/A   Overcast